Showing default

HULIANWANG DIGUI-30, 64283

Orbit data source: Space-Track

HULIANWANG DIGUI-30, 64283 is a payload satellite owned by Zhongguo Xingwang (CN) in LEO that was launched on Thu, 05 Jun 2025 UTC via a CHANG ZHENG 6A launch vehicle from the Taiyaun Space Center, China (TSC). Payload-class satellites include a variety of spacecraft equipped with specific instruments for various scientific and technological missions. These include communications satellites like Starlink; space stations such as the ISS; scientific satellites like the Hubble; Earth observation satellites from companies like Planet Labs, Umbra, and HawkEye 360; GPS; miniature CubeSats for education and research; and military/defense satellites.

Loading next visibility...
Identifier
64283, 2025-121A
Orbit
LEO
Last TLE update
2 days ago
Origin
Flag of CNZXW (CN / PRC)
Manufacturer
CAST?
Mission
Operational spacecraft
Bus & Motor
Unknown
Mass
~800 kg wet, ~800 kg dry
Launch date (UTC)
2025-06-05 (2 weeks ago)
Launch vehicle
CHANG ZHENG 6A
Launch site
Taiyaun Space Center, China (TSC)
Object type
Payload
Rocket body
Debris
Shape & HBR
Unknown
Radar Cross Section
Large (>1 m²)

Expand to show TLE details & history

TLE from 2 days ago
0 HULIANWANG DIGUI-30
1 64283U 25121A   25168.68182750 -.00000122  00000-0 -16083-3 0  9991
2 64283  86.4996 138.3323 0009833 183.8922 176.2162 13.68781033  1620
Epoch: 2025-06-17T16:21Z
TLE epoch observation values (Epoch: 2025-06-17T16:21:49.895Z)
Latitude
-0.0001°
Longitude
-13.30032°
Altitude
1,014.154 km
Speed
7.341 km/s
True Right ascension
09h 13m 19s
True Declination
0° 00' 00"
Sunlit
Object was in daylight at epoch
Visualization orbit readout
Latitude
77.16038°
Longitude
150.64777°
Altitude
1,015.461 km
Speed
7.351 km/s
Apparent Right ascension
03h 17m 44s
Apparent Declination
36° 52' 53"
Sunlit
Object is in daylight
Visualization observer readout
Local Sidereal Time
16:32:43
Azimuth
15.196° NNE
Elevation
-11.294°
Doppler factor
1
Orbital elements
Apogee altitude
1,008.262 km
Perigee altitude
993.75 km
Semi-major axis
7,379.143 km
Eccentricity
0.00098
Inclination
86.4996°
RAAN
138.3323°
Arg. of periapsis
183.8922°
True anomaly
Unknown
Mean anomaly
176.2162°
Eccentric anomaly
Unknown
Mean motion
3.424 °/min
Orbital period
105.14 mins
BSTAR
-0.00016083
Loading maneuver chart data...
Loading SW <> Apogee altitude chart data...
Loading historical data...
Loading historical data...
Loading historical data...
Loading historical data...
Loading historical data...
Loading historical data...
Loading historical data...

HULIANWANG DIGUI-30 Visibility forecast

Observer location: undefined°, undefined°

Span
Click to sort rows by Start time (UTC) header in descending order
Start Az.
Max El. time (UTC)
Max El. Az.
Max El.
End time (UTC)
End Az.
11 mins2025-06-19 09:18:21.457Z14.888° NNE2025-06-19 09:23:21.457Z74.67° E32.755°2025-06-19 09:29:21.457Z149.552° SSE
8 mins2025-06-19 11:05:21.457Z324.866° NNW2025-06-19 11:09:21.457Z271.181° WNW25.954°2025-06-19 11:13:21.457Z225.8° WSW
8 mins2025-06-19 21:08:21.457Z118.274° SE2025-06-19 21:12:21.457Z72.221° E20.477°2025-06-19 21:16:21.457Z32.19° NE
10 mins2025-06-19 22:52:21.457Z204.279° SW2025-06-19 22:57:21.457Z293.428° NW38.686°2025-06-19 23:02:21.457Z351.328° N
|